DW1256 Weather Reports


Display with metric or nautical units.
time (UTC)temp
F
wind
direction
speed
MPH
gust
MPH
rain 1hr
in
rain 24hr
in
rain mn
in
humidity
%
barometer
mb
20260901153930 87 254 4.0 9.0 0.00 0.00 0.00 54 1014.8
20260901153431 86 271 5.0 11.0 0.00 0.00 0.00 54 1014.9
20260901152928 86 269 5.0 11.0 0.00 0.00 0.00 54 1014.9
20260901152428 86 278 4.0 9.0 0.00 0.00 0.00 55 1015.0
20260901151430 85 248 3.0 8.0 0.00 0.00 0.00 55 1014.9
20260901150930 85 269 3.0 8.0 0.00 0.00 0.00 56 1014.9
20260901150425 85 292 3.0 7.0 0.00 0.00 0.00 55 1014.8
20260901145926 85 283 3.0 7.0 0.00 0.00 0.00 57 1014.8
20260901145424 84 243 4.0 9.0 0.00 0.00 0.00 57 1014.8
20260901144925 83 283 4.0 9.0 0.00 0.00 0.00 57 1014.8
20260901144424 83 298 2.0 7.0 0.00 0.00 0.00 57 1014.7
20260901143927 83 246 1.0 6.0 0.00 0.00 0.00 58 1014.7
20260901143424 83 271 1.0 7.0 0.00 0.00 0.00 58 1014.8
20260901142925 83 238 2.0 9.0 0.00 0.00 0.00 58 1014.8
20260901142428 82 219 3.0 9.0 0.00 0.00 0.00 59 1014.8
20260901141920 82 211 3.0 9.0 0.00 0.00 0.00 59 1014.8
20260901141421 82 285 2.0 7.0 0.00 0.00 0.00 59 1014.8
20260901140921 82 260 2.0 7.0 0.00 0.00 0.00 60 1014.8
20260901140422 81 244 2.0 7.0 0.00 0.00 0.00 59 1014.8
20260901135922 81 234 2.0 8.0 0.00 0.00 0.00 61 1014.8
20260901135421 81 215 2.0 8.0 0.00 0.00 0.00 61 1014.7
20260901134926 80 259 1.0 4.0 0.00 0.00 0.00 61 1014.7
20260901134421 80 219 1.0 4.0 0.00 0.00 0.00 62 1014.7
20260901132416 78 146 0.0 4.0 0.00 0.00 0.00 65 1014.7
20260901131918 77 267 0.0 3.0 0.00 0.00 0.00 67 1014.7
20260901131417 76 175 0.0 3.0 0.00 0.00 0.00 70 1014.8
20260901130917 75 248 0.0 3.0 0.00 0.00 0.00 71 1014.8
20260901130419 75 153 0.0 1.0 0.00 0.00 0.00 71 1014.8
20260901125916 74 249 0.0 2.0 0.00 0.00 0.00 71 1014.9
20260901125420 74 250 0.0 2.0 0.00 0.00 0.00 71 1014.9
20260901124413 73 221 0.0 1.0 0.00 0.00 0.00 71 1014.8
20260901123913 73 268 0.0 2.0 0.00 0.00 0.00 71 1014.8
20260901123415 73 246 0.0 2.0 0.00 0.00 0.00 71 1014.8
20260901122914 73 155 0.0 3.0 0.00 0.00 0.00 71 1014.7
20260901122413 73 151 0.0 3.0 0.00 0.00 0.00 71 1014.7
20260901121914 73 182 0.0 0.0 0.00 0.00 0.00 71 1014.6
20260901120913 72 182 0.0 0.0 0.00 0.00 0.00 71 1014.5
20260901120412 72 182 0.0 0.0 0.00 0.00 0.00 70 1014.6
20260901115411 72 182 0.0 0.0 0.00 0.00 0.00 70 1014.5
20260901114908 72 180 0.0 1.0 0.00 0.00 0.00 70 1014.4
20260901114410 72 180 0.0 1.0 0.00 0.00 0.00 70 1014.4
20260901113409 72 180 0.0 3.0 0.00 0.00 0.00 70 1014.3
20260901112910 72 175 0.0 3.0 0.00 0.00 0.00 70 1014.2
20260901112411 72 163 0.0 0.0 0.00 0.00 0.00 70 1014.2
20260901111404 72 145 0.0 3.0 0.00 0.00 0.00 70 1014.1
20260901110905 72 133 0.0 3.0 0.00 0.00 0.00 70 1014.0
20260901110406 72 133 0.0 3.0 0.00 0.00 0.00 69 1014.0
20260901105905 72 179 0.0 0.0 0.00 0.00 0.00 69 1014.0
20260901104907 72 235 0.0 0.0 0.00 0.00 0.00 69 1014.1
20260901104404 72 232 0.0 2.0 0.00 0.00 0.00 69 1014.2
20260901103906 72 194 0.0 2.0 0.00 0.00 0.00 69 1014.1
20260901103401 72 235 0.0 2.0 0.00 0.00 0.00 69 1014.0
20260901102902 72 156 0.0 4.0 0.00 0.00 0.00 69 1014.1
20260901102400 72 161 0.0 4.0 0.00 0.00 0.00 69 1014.0
20260901101901 73 181 1.0 2.0 0.00 0.00 0.00 69 1014.0
20260901100900 73 224 0.0 3.0 0.00 0.00 0.00 68 1013.9
20260901100405 73 180 0.0 4.0 0.00 0.00 0.00 68 1013.9
20260901095900 73 202 0.0 4.0 0.00 0.00 0.00 68 1013.8
20260901095403 73 167 1.0 4.0 0.00 0.00 0.00 68 1013.9
20260901094901 73 168 1.0 4.0 0.00 0.00 0.00 68 1013.9
20260901094402 73 183 0.0 0.0 0.00 0.00 0.00 68 1013.9
20260901093901 73 197 0.0 0.0 0.00 0.00 0.00 68 1013.9
20260901093402 73 197 0.0 0.0 0.00 0.00 0.00 67 1013.9
20260901092900 73 215 0.0 0.0 0.00 0.00 0.00 67 1013.9
20260901092402 73 242 0.0 0.0 0.00 0.00 0.00 68 1013.9
20260901091901 73 160 0.0 0.0 0.00 0.00 0.00 67 1013.9
20260901091359 73 169 0.0 0.0 0.00 0.00 0.00 67 1013.9
20260901090358 73 175 0.0 0.0 0.00 0.00 0.00 67 1013.9
20260901085851 73 175 0.0 0.0 0.00 0.00 0.00 67 1013.9
20260901085346 73 250 0.0 0.0 0.00 0.00 0.00 67 1013.9
20260901084332 73 190 0.0 0.0 0.00 0.00 0.00 66 1014.0
20260901083827 73 184 0.0 0.0 0.00 0.00 0.00 66 1013.9
20260901083322 74 187 0.0 1.0 0.00 0.00 0.00 66 1014.0
20260901082815 74 0 0.0 1.0 0.00 0.00 0.00 66 1014.0
20260901082309 74 0 0.0 0.0 0.00 0.00 0.00 66 1013.9
20260901081257 74 219 0.0 1.0 0.00 0.00 0.00 66 1013.8
20260901080753 74 0 0.0 2.0 0.00 0.00 0.00 66 1013.8
20260901080245 74 171 0.0 2.0 0.00 0.00 0.00 66 1013.8
20260901075739 74 249 0.0 1.0 0.00 0.00 0.00 66 1013.7
20260901075233 74 220 0.0 1.0 0.00 0.00 0.00 66 1013.7
20260901074727 74 286 0.0 2.0 0.00 0.00 0.00 66 1013.7
20260901074220 74 101 0.0 2.0 0.00 0.00 0.00 66 1013.7
20260901073715 74 217 0.0 5.0 0.00 0.00 0.00 66 1013.7
20260901073211 74 133 0.0 5.0 0.00 0.00 0.00 66 1013.7
20260901072703 74 272 0.0 0.0 0.00 0.00 0.00 66 1013.7
20260901072157 74 0 0.0 1.0 0.00 0.00 0.00 66 1013.7
20260901071146 74 167 0.0 0.0 0.00 0.00 0.00 66 1013.6
20260901070639 74 146 0.0 0.0 0.00 0.00 0.00 66 1013.6
20260901065636 74 80 0.0 7.0 0.00 0.00 0.00 66 1013.6
20260901065135 74 212 0.0 7.0 0.00 0.00 0.00 66 1013.5
20260901064633 74 186 0.0 3.0 0.00 0.00 0.00 66 1013.5
20260901064133 75 152 0.0 2.0 0.00 0.00 0.00 66 1013.6
20260901063132 75 177 0.0 3.0 0.00 0.00 0.00 65 1013.6
20260901062636 75 218 0.0 2.0 0.00 0.00 0.00 65 1013.6
20260901062132 75 185 0.0 2.0 0.00 0.00 0.00 65 1013.6
20260901061133 75 157 0.0 1.0 0.00 0.00 0.00 65 1013.7
20260901060633 75 157 0.0 3.0 0.00 0.00 0.00 65 1013.7
20260901060131 75 157 0.0 3.0 0.00 0.00 0.00 65 1013.7
20260901055130 75 232 0.0 2.0 0.00 0.00 0.00 65 1013.7
20260901054628 75 246 0.0 0.0 0.00 0.00 0.00 65 1013.8
20260901054129 75 188 0.0 0.0 0.00 0.00 0.00 65 1013.7
20260901053125 75 198 0.0 0.0 0.00 0.00 0.00 65 1013.7
20260901052619 75 182 0.0 3.0 0.00 0.00 0.00 65 1013.7
20260901052113 75 272 0.0 3.0 0.00 0.00 0.00 64 1013.7
20260901051608 76 162 0.0 0.0 0.00 0.00 0.00 64 1013.7
20260901051101 76 161 0.0 0.0 0.00 0.00 0.00 64 1013.7
20260901050555 76 161 0.0 0.0 0.00 0.00 0.00 64 1013.7
20260901050050 76 161 0.0 1.0 0.00 0.00 0.00 64 1013.7
20260901045548 76 196 0.0 3.0 0.00 0.00 0.00 64 1013.7
20260901045047 76 221 0.0 3.0 0.00 0.00 0.00 64 1013.7
20260901044550 76 191 0.0 3.0 0.00 0.00 0.00 64 1013.7
20260901044047 76 165 1.0 4.0 0.00 0.00 0.00 64 1013.7
20260901043547 76 175 1.0 5.0 0.00 0.00 0.00 65 1013.7
20260901042544 76 159 1.0 5.0 0.00 0.00 0.00 65 1013.8
20260901041544 76 171 1.0 4.0 0.00 0.00 0.00 65 1013.8
20260901041044 76 161 1.0 4.0 0.00 0.00 0.00 65 1013.9
20260901040543 76 180 1.0 4.0 0.00 0.00 0.00 65 1013.9
20260901040042 76 154 1.0 4.0 0.00 0.00 0.00 65 1013.9
20260901035541 76 154 2.0 5.0 0.00 0.00 0.00 65 1013.9
20260901034539 76 159 3.0 6.0 0.00 0.00 0.00 65 1013.8
20260901034039 76 187 2.0 6.0 0.00 0.00 0.00 65 1013.8
20260901033535 76 179 2.0 6.0 0.00 0.00 0.00 66 1013.9
20260901033028 76 182 1.0 6.0 0.00 0.00 0.00 66 1013.8
20260901032522 76 180 1.0 4.0 0.00 0.00 0.00 66 1013.8
20260901032018 76 159 1.0 4.0 0.00 0.00 0.00 66 1013.9
20260901031510 76 180 0.0 3.0 0.00 0.00 0.00 66 1013.9
20260901030458 76 159 0.0 0.0 0.00 0.00 0.00 65 1014.0
20260901025953 76 159 0.0 0.0 0.00 0.00 0.00 65 1013.9
20260901025447 77 159 0.0 0.0 0.00 0.00 0.00 65 1013.9
20260901024940 77 0 0.0 1.0 0.00 0.00 0.00 64 1013.9
20260901024433 78 159 0.0 1.0 0.00 0.00 0.00 63 1014.0
20260901023928 78 159 0.0 0.0 0.00 0.00 0.00 62 1014.0
20260901023422 78 159 0.0 0.0 0.00 0.00 0.00 62 1014.1
20260901022916 78 159 0.0 0.0 0.00 0.00 0.00 61 1014.1
20260901022409 79 159 0.0 0.0 0.00 0.00 0.00 61 1014.1
20260901021904 79 159 0.0 0.0 0.00 0.00 0.00 61 1014.1
20260901020852 79 159 0.0 0.0 0.00 0.00 0.00 60 1014.0
20260901020346 80 159 0.0 0.0 0.00 0.00 0.00 60 1013.9
20260901015840 80 159 0.0 0.0 0.00 0.00 0.00 59 1014.0
20260901015335 80 159 0.0 0.0 0.00 0.00 0.00 59 1014.0
20260901014830 80 159 0.0 0.0 0.00 0.00 0.00 58 1014.0
20260901014323 80 159 0.0 0.0 0.00 0.00 0.00 58 1013.9
20260901013815 80 159 0.0 0.0 0.00 0.00 0.00 58 1013.8
20260901013310 80 159 0.0 0.0 0.00 0.00 0.00 58 1013.7
20260901012258 81 159 1.0 4.0 0.00 0.00 0.00 58 1013.7
20260901011752 81 159 1.0 4.0 0.00 0.00 0.00 58 1013.7
20260901011246 81 163 1.0 4.0 0.00 0.00 0.00 57 1013.6
20260901010744 82 164 1.0 4.0 0.00 0.00 0.00 57 1013.6
20260901010234 82 159 1.0 3.0 0.00 0.00 0.00 56 1013.5
20260901005222 83 195 1.0 3.0 0.00 0.00 0.00 55 1013.4
20260901004716 83 195 1.0 5.0 0.00 0.00 0.00 55 1013.3
20260901004210 83 175 1.0 5.0 0.00 0.00 0.00 55 1013.2
20260901003703 83 146 2.0 5.0 0.00 0.00 0.00 54 1013.1
20260901003158 84 170 2.0 5.0 0.00 0.00 0.00 53 1013.1
20260901002652 84 186 1.0 5.0 0.00 0.00 0.00 53 1012.9
20260901002148 85 160 1.0 6.0 0.00 0.00 0.00 53 1012.9
20260901001640 85 178 2.0 6.0 0.00 0.00 0.00 52 1012.8
20260901001134 85 162 2.0 5.0 0.00 0.00 0.00 52 1012.9
20260901000627 86 175 2.0 5.0 0.00 0.00 0.00 51 1012.8
20260901000123 86 167 2.0 6.0 0.00 0.00 0.00 51 1012.8
20260831235110 87 196 1.0 5.0 0.00 0.00 0.00 50 1012.8
20260831234605 87 186 2.0 5.0 0.00 0.00 0.00 50 1012.8
20260831234058 87 186 2.0 6.0 0.00 0.00 0.00 50 1012.8
20260831233551 87 198 2.0 6.0 0.00 0.00 0.00 49 1012.8
20260831233048 87 179 2.0 10.0 0.00 0.00 0.00 50 1012.8
20260831232037 87 158 3.0 9.0 0.00 0.00 0.00 49 1012.7
20260831231528 87 155 3.0 9.0 0.00 0.00 0.00 49 1012.6
20260831230516 87 153 3.0 8.0 0.00 0.00 0.00 49 1012.5
20260831230011 88 175 3.0 8.0 0.00 0.00 0.00 49 1012.4
20260831224958 88 142 4.0 12.0 0.00 0.00 0.00 49 1012.2
20260831224453 88 143 4.0 11.0 0.00 0.00 0.00 48 1012.2
20260831223947 88 180 5.0 12.0 0.00 0.00 0.00 48 1012.2
20260831223440 88 180 6.0 12.0 0.00 0.00 0.00 48 1012.2
20260831222933 89 201 5.0 12.0 0.00 0.00 0.00 49 1012.3
20260831222429 89 171 5.0 12.0 0.00 0.00 0.00 48 1012.4
20260831221416 89 169 4.0 12.0 0.00 0.00 0.00 47 1012.5
20260831220405 89 173 4.0 10.0 0.00 0.00 0.00 47 1012.6
20260831215352 90 221 4.0 14.0 0.00 0.00 0.00 47 1012.8
20260831214847 90 165 4.0 14.0 0.00 0.00 0.00 46 1012.8
20260831214340 90 178 4.0 10.0 0.00 0.00 0.00 45 1012.8
20260831213834 91 203 4.0 12.0 0.00 0.00 0.00 47 1012.9
20260831213330 90 190 4.0 12.0 0.00 0.00 0.00 47 1012.8
20260831212822 90 180 5.0 16.0 0.00 0.00 0.00 46 1012.9
20260831212317 90 182 5.0 16.0 0.00 0.00 0.00 44 1012.9
20260831211811 91 163 4.0 14.0 0.00 0.00 0.00 47 1012.9
20260831211304 91 189 5.0 14.0 0.00 0.00 0.00 46 1012.9
20260831210758 90 141 6.0 19.0 0.00 0.00 0.00 46 1012.9
20260831210253 90 186 6.0 19.0 0.00 0.00 0.00 44 1012.9
20260831205746 91 165 4.0 11.0 0.00 0.00 0.00 44 1012.9
20260831205240 91 155 5.0 14.0 0.00 0.00 0.00 46 1012.9
20260831204734 90 331 6.0 14.0 0.00 0.00 0.00 45 1012.9
20260831204227 90 114 6.0 12.0 0.00 0.00 0.00 45 1013.0
20260831203721 90 163 5.0 13.0 0.00 0.00 0.00 45 1013.1
20260831202205 91 155 3.0 13.0 0.00 0.00 0.00 46 1013.3
20260831201658 91 198 5.0 14.0 0.00 0.00 0.00 46 1013.4
20260831200646 91 218 3.0 12.0 0.00 0.00 0.00 44 1013.5
20260831200140 91 177 3.0 13.0 0.00 0.00 0.00 45 1013.5
20260831195128 91 144 5.0 17.0 0.00 0.00 0.00 46 1013.5
20260831194622 90 130 5.0 17.0 0.00 0.00 0.00 46 1013.5
20260831194116 90 211 5.0 14.0 0.00 0.00 0.00 46 1013.7
20260831193610 90 128 5.0 14.0 0.00 0.00 0.00 47 1013.7
20260831193105 91 181 5.0 15.0 0.00 0.00 0.00 47 1013.8
20260831192558 90 198 4.0 15.0 0.00 0.00 0.00 47 1013.8
20260831192052 91 160 4.0 12.0 0.00 0.00 0.00 47 1013.8
20260831191546 90 149 5.0 12.0 0.00 0.00 0.00 47 1013.9
20260831191040 90 258 5.0 11.0 0.00 0.00 0.00 47 1014.0
20260831190535 90 173 5.0 11.0 0.00 0.00 0.00 47 1014.1
20260831185523 90 176 5.0 18.0 0.00 0.00 0.00 45 1014.1
20260831185017 90 150 4.0 18.0 0.00 0.00 0.00 46 1014.1
20260831184005 90 204 5.0 10.0 0.00 0.00 0.00 47 1014.3
20260831183458 90 146 5.0 11.0 0.00 0.00 0.00 47 1014.5
20260831182953 90 191 4.0 11.0 0.00 0.00 0.00 46 1014.6
20260831182445 91 172 4.0 12.0 0.00 0.00 0.00 45 1014.6
20260831181940 91 201 3.0 12.0 0.00 0.00 0.00 46 1014.7
20260831180928 91 188 3.0 10.0 0.00 0.00 0.00 45 1014.7
20260831175916 90 173 3.0 11.0 0.00 0.00 0.00 43 1014.9
20260831175411 91 161 2.0 8.0 0.00 0.00 0.00 44 1014.9
20260831174907 92 148 2.0 8.0 0.00 0.00 0.00 44 1014.9
20260831174358 91 144 3.0 8.0 0.00 0.00 0.00 43 1014.9
20260831173346 90 168 3.0 9.0 0.00 0.00 0.00 44 1014.9
20260831172841 90 165 2.0 7.0 0.00 0.00 0.00 44 1015.0
20260831172340 90 227 2.0 7.0 0.00 0.00 0.00 43 1014.9
20260831171338 89 214 3.0 10.0 0.00 0.00 0.00 44 1015.0
20260831170840 89 205 2.0 10.0 0.00 0.00 0.00 44 1015.1
20260831165334 87 166 2.0 5.0 0.00 0.00 0.00 50 1015.4
20260831164836 87 142 1.0 5.0 0.00 0.00 0.00 49 1015.5
20260831163835 86 236 2.0 5.0 0.00 0.00 0.00 51 1015.6
20260831163336 86 151 2.0 6.0 0.00 0.00 0.00 49 1015.6
20260831162836 85 273 2.0 6.0 0.00 0.00 0.00 50 1015.7
20260831162335 85 333 2.0 6.0 0.00 0.00 0.00 52 1015.7
20260831160837 83 163 3.0 8.0 0.00 0.00 0.00 52 1015.6
20260831160339 83 166 3.0 7.0 0.00 0.00 0.00 53 1015.6
20260831155830 83 267 2.0 5.0 0.00 0.00 0.00 54 1015.6
20260831155325 83 144 2.0 6.0 0.00 0.00 0.00 53 1015.7
20260831154828 83 194 2.0 6.0 0.00 0.00 0.00 53 1015.6
20260831154326 83 182 1.0 6.0 0.00 0.00 0.00 52 1015.6